Location: Unspecified
(51.0950°N, 12.9690°E)
Time: 20:54:12
(UTC+00:00)

NOSS 3-1 (C) - Pass Details

Date: 28 October 2021
Orbit: 717 x 1491 km, 63.4° (Epoch: 25 November)

Event Time Altitude Azimuth Distance (km) Brightness Sun altitude
Rises 17:02:47 0° 226° (SW) 3,225 7.1 -12.1°
Reaches altitude 10° 17:05:01 10° 227° (SW) 2,361 6.4 -12.4°
Maximum altitude 17:10:26 82° 315° (NW) 902 3.4 -13.2°
Drops below altitude 10° 17:16:58 10° 44° (NE) 2,826 5.5 -14.3°
Enters shadow 17:17:12 - 44° (NE) 2,909 5.5 -14.3°
